Location: ???????
(55.4362°N, 38.1183°E)
Time: 01:34:11
(UTC+00:00)

Cosmos 1802 Rocket - Pass Details

Date: 17 June 2021
Orbit: 955 x 1010 km, 82.9° (Epoch: 26 July)

Event Time Altitude Azimuth Distance (km) Brightness Sun altitude
Rises 19:22:25 0° 347° (NNW) 3,676 8.8 -6.7°
Reaches altitude 10° 19:24:56 10° 344° (NNW) 2,732 8.0 -6.9°
Maximum altitude 19:31:05 61° 266° (W) 1,112 4.5 -7.3°
Drops below altitude 10° 19:37:16 10° 188° (S) 2,752 5.9 -7.7°
Enters shadow 19:38:45 - 186° (S) 3,300 6.2 -7.8°
